{"data":{"norad_id":50844,"epoch":"2026-09-19T22:06:31.076064Z","epoch_age_seconds":98225,"freshness":"FRESH","line1":"1 50844U 22001AT  26262.92119301  .00031261  00000+0  87436-3 0  9993","line2":"2 50844  53.1589  12.2208 0001080   0.5813 359.5191 15.36421890259799","mean_motion":15.3642189,"eccentricity":0.000108,"inclination_deg":53.1589,"raan_deg":12.2208,"arg_perigee_deg":0.5813,"mean_anomaly_deg":359.5191,"bstar":0.00087436,"rev_number":25979,"period_min":93.724256948721,"perigee_km":455.96218582911,"apogee_km":457.43851069633,"semimajor_km":6834.8373482627,"source":"CELESTRAK","updated_at":"2026-09-20T09:00:39.582296Z"}}